Regional Weather Roundup
Issued by NWS Northern Indiana

Home | Current Version | Previous Version | Graphics & Text | Print | Product List | Glossary On
Versions: 1 2 3 4 5 6 7 8 9 10 11 12 13 14 15 16 17 18 19 20 21 22 23 24 25 26 27 28 29 30 31 32 33 34 35 36 37 38 39 40 41 42 43 44 45 46 47 48 49 50
000
ASUS43 KIWX 262000
RWRIWX

KIWX WEATHER ROUNDUP
NATIONAL WEATHER SERVICE NORTHERN INDIANA
400 PM EDT THU MAR 26 2015

NOTE: "FAIR" INDICATES FEW OR NO CLOUDS BELOW 12,000 FEET WITH NO
SIGNIFICANT WEATHER AND/OR OBSTRUCTIONS TO VISIBILITY.

* THESE STATIONS ARE NOT UNDER NWS QUALITY CONTROL. THEY ALSO MAY NOT
  REPORT WEATHER SUCH AS PRECIPITATION OR FOG.

INZ001>027-262100-
NORTHERN INDIANA

CITY           SKY/WX    TMP DP  RH WIND       PRES   REMARKS
KNOX*            N/A     41   9  26 N10G20    29.92F
SOUTH BEND     PTSUNNY   41  22  46 NW18G26   29.93F
ELKHART*       PTSUNNY   39  19  45 NW12G21   29.92S
GOSHEN         PTSUNNY   42  25  50 NW20G25   29.88F
WARSAW*        MOSUNNY   41  27  56 NW10G20   29.90S
ANGOLA*        MOSUNNY   43  28  56 NW15      29.86S
FORT WAYNE     CLOUDY    43  31  62 W16G22    29.88S

$$
INZ028>050-262100-
CENTRAL INDIANA

CITY           SKY/WX    TMP DP  RH WIND       PRES   REMARKS
LAFAYETTE      PTSUNNY   43  30  60 W13G18    29.94S
KOKOMO*          N/A     43  30  61 NW15      29.92R
MUNCIE*        PTSUNNY   41  33  73 NW13      29.91R
INDIANAPOLIS   CLOUDY    44  32  62 W13       29.93R

$$
MIZ043>046-050>051-056>058-064>065-071>073-077>080-262100-
SOUTHWEST LOWER MICHIGAN

CITY           SKY/WX    TMP DP  RH WIND       PRES   REMARKS
BATTLE CREEK   CLOUDY    38  24  57 NW15      29.88S
BENTON HARBOR  CLOUDY    36  25  64 NW9       29.94S
COLDWATER*     CLOUDY    41  23  48 W16       29.86S
HILLSDALE*     PTSUNNY   44  25  47 NW13G24   29.83F
HOLLAND        CLOUDY    38  25  59 NW13G24   29.92F
GRAND RAPIDS   CLOUDY    38  23  55 NW15      29.88S
KALAMAZOO      CLOUDY    39  24  55 NW16      29.89S
STURGIS*       CLOUDY    39  25  56 NW15G21   29.88S
THREE RIVERS*  CLOUDY    40  24  52 NW18      29.90S

$$
OHZ001>008-015>018-024>025-262100-
NORTHWEST OHIO

CITY           SKY/WX    TMP DP  RH WIND       PRES   REMARKS
DEFIANCE       CLOUDY    45  31  58 NW10      29.86F
FINDLAY        CLOUDY    42  33  70 NW12      29.84F
TOLEDO EXPRESS CLOUDY    42  29  59 N12       29.84F
TOLEDO METCALF CLOUDY    43  31  62 W10       29.85F
LIMA           CLOUDY    41  33  73 W12       29.86S

$$
AND FOR LAKE MICHIGAN COASTAL AND OPEN LAKE BUOY OBSERVATIONS

STATION/POSITION TEMP    WIND        PRES    VSBY  WAVE
                 AIR SEA DIR/SP/G                  HT/PER
                 (F)     (DEG/KT/KT) (MB)    (MI)  (FT/S)
CALUMET HARBOR    37      50/  7/  9 1012.9F
MICHIGAN CITY     36     260/  3/  4   N/A
BURNS HARBOR      37      40/  5/  6 1014.6S
SAINT JOSEPH      35     300/  5/  8 1014.6R

$$
&&


USA.gov is the U.S. government's official web portal to all federal, state and local government web resources and services.